GW3147 Weather Reports


time (UTC)temp
C
wind
direction
speed
KPH
gust
KPH
rain 1hr
cm
rain 24hr
cm
rain mn
cm
humidity
%
barometer
mb
20260504194541 20 236 4.8 17.7 0.00 0.00 0.00 34 1010.0
20260504193041 19 262 3.2 22.5 0.00 0.00 0.00 35 1010.0
20260504191544 19 257 3.2 14.5 0.00 0.00 0.00 36 1010.0
20260504190036 19 257 6.4 12.9 0.00 0.00 0.00 35 1010.2
20260504184543 19 285 4.8 16.1 0.00 0.00 0.00 35 1010.2
20260504183041 19 273 9.7 20.9 0.00 0.00 0.00 35 1010.6
20260504181543 19 252 4.8 14.5 0.00 0.00 0.00 36 1010.6
20260504180041 18 233 6.4 16.1 0.00 0.00 0.00 34 1010.8
20260504174535 18 200 4.8 19.3 0.00 0.00 0.00 34 1011.0
20260504173042 18 233 4.8 22.5 0.00 0.00 0.00 34 1011.0
20260504171542 18 265 4.8 16.1 0.00 0.00 0.00 39 1011.1
20260504081541 8 295 0.0 6.4 0.00 0.00 0.00 53 1012.1
20260504044539 6 0 0.0 1.6 0.00 0.00 0.00 52 1012.5
20260504043036 6 0 0.0 1.6 0.00 0.00 0.00 51 1012.5
20260504041534 6 0 0.0 1.6 0.00 0.00 0.00 50 1012.4
20260504040048 6 0 0.0 1.6 0.00 0.00 0.00 50 1012.3
20260504034543 6 0 0.0 1.6 0.00 0.00 0.00 48 1012.2
20260504033041 6 0 0.0 0.0 0.00 0.00 0.00 48 1012.2
20260504031544 7 0 0.0 1.6 0.00 0.00 0.00 47 1012.2
20260504030037 7 295 0.0 3.2 0.00 0.00 0.00 48 1012.1
20260504024535 7 0 0.0 1.6 0.00 0.00 0.00 47 1012.0
20260504023043 7 0 0.0 3.2 0.00 0.00 0.00 47 1012.0
20260504021543 7 0 0.0 1.6 0.00 0.00 0.00 47 1011.8
20260504020043 7 0 0.0 1.6 0.00 0.00 0.00 46 1011.9
20260504014536 7 295 0.0 1.6 0.00 0.00 0.00 46 1011.7
20260504013036 7 0 0.0 3.2 0.00 0.00 0.00 45 1011.7
20260504011544 7 295 0.0 1.6 0.00 0.00 0.00 46 1011.6
20260504010041 7 0 0.0 1.6 0.00 0.00 0.00 46 1011.3
20260504004546 7 295 0.0 1.6 0.00 0.00 0.00 46 1011.1
20260504003046 7 295 0.0 1.6 0.00 0.00 0.00 46 1011.0
20260504001541 8 0 0.0 3.2 0.00 0.00 0.00 45 1010.8
20260504000054 8 295 0.0 1.6 0.00 0.00 0.00 44 1010.5
20260503234551 8 295 0.0 3.2 0.00 0.00 0.00 43 1010.6
20260503233041 9 0 1.6 14.5 0.00 0.00 0.00 42 1010.4
20260503231541 9 293 3.2 14.5 0.00 0.00 0.00 41 1010.3
20260503230041 9 295 3.2 6.4 0.00 0.00 0.00 41 1010.1
20260503224536 9 295 3.2 16.1 0.00 0.00 0.00 42 1010.1
20260503223039 9 295 3.2 11.3 0.00 0.00 0.00 42 1010.0
20260503221550 9 295 1.6 14.5 0.00 0.00 0.00 42 1010.0
20260503220043 9 297 8.0 16.1 0.00 0.00 0.00 42 1009.9
20260503214543 9 295 6.4 17.7 0.00 0.00 0.00 42 1009.9
20260503213040 8 300 4.8 20.9 0.00 0.00 0.00 46 1009.9
20260503211540 9 295 6.4 17.7 0.00 0.00 0.00 44 1009.7
20260503210036 9 298 6.4 20.9 0.00 0.00 0.00 44 1009.5
20260503204533 8 297 4.8 17.7 0.00 0.00 0.00 44 1009.4
20260503203100 8 303 6.4 25.7 0.00 0.00 0.00 44 1009.5
20260503201542 8 298 8.0 20.9 0.00 0.00 0.00 45 1009.2
20260503200041 9 300 4.8 17.7 0.00 0.00 0.00 44 1009.1